Location: Middelsbur
(53.6609°N, 7.5020°E)
Time: 23:55:22
(UTC+00:00)

Gbstr 26 Del rocket - Pass Details

Date: 06 July 2020
Orbit: 492 x 1264 km, 51.8° (Epoch: 03 August)

Event Time Altitude Azimuth Distance (km) Brightness Sun altitude
Exits shadow 22:44:18 16° 133° (SE) 1,412 4.4 -13.0°
Drops below altitude 10° 22:46:31 10° 99° (E) 1,817 5.3 -13.1°
Sets 22:49:33 0° 79° (ENE) 2,824 6.5 -13.1°
